User: anonymous   Login
Location: Montreal
(45.5000°N, 73.5833°W)
Time: 20:14:31
(UTC-04:00)
Language:

Tiangong 2 - Orbit

View from above orbital plane
View from above orbital plane
View from above satellite
View from above satellite

Ground track
Ground track

The orbit data is extracted from the following two-line orbital elements,

1 41765U 16057A   18170.46857634  .00049784  91968-5  14565-3 0  9996
2 41765  42.7861 327.4873 0004303 304.0303 104.5382 15.92792399100369
Epoch (UTC): 19 June 2018 11:14:44
Eccentricity: 0.0004303
inclination: 42.7861°
perigee height: 291 km
apogee height: 297 km
right ascension of ascending node: 327.4873°
argument of perigee: 304.0303°
revolutions per day: 15.92792399
mean anomaly at epoch: 104.5382°
orbit number at epoch: 10036

The dashed part of the orbit path shows where the satellite is in the earth's shadow,  

DLR